Portada
METAR-TAF:

METAR-TAF

Aeropuertos :

Kake, Alaska, Estados Unidos

latitud: 56-57N, longitud: 133-54W, altitud: 52 m

Observación

El informe se hizo hace 1 hora y 23 minutos, a las 11:56 UTC
Viento 12 kt del este-sureste con ráfagas de 16 kt
Temperatura 10°C
Humedad 87%
Presión 1024 hPa
Visibilidad: 16.1 km
Cielo cubierto a una altura de 1800 ft

METAR: PAFE 151156Z AUTO 11012G16KT 10SM OVC018 10/08 A3023 RMK AO2 SLP251 60000 T01000078 10100 20094 53007

Hora: 05:19 (13:19 UTC)


TAF: falta

Observaciones y pronósticos meteorológicos de más de 4000 aeropuertos (mensajes METAR y TAF).

Los puntos amarillos y rojos representan las estaciones disponibles.

Ponga el ratón en el punto deseado para ver el nombre de la estación.

Haga clic para ver las observaciones y los pronósticos meteorológicos.

Para cambiar el mapa : haga clic en los botones verdes con una cruz de color negro para hacer un zoom, en el botón verde con un guión para alejar o en las flechas verdes para mapas adyacentes.


METAR-TAF: